Escanaba, MI

1:40 AM EDT on May 23, 2017 (GMT -0400)
Delta County

Weather History for KESC - April, 2014

Change the Weather History Date:

Wednesday, April 2, 2014

  Actual Average Record
Temperature  
Mean Temperature 27 °F -  
Max Temperature 35 °F 40 °F 62 °F (2015)
Min Temperature 19 °F 25 °F 7 °F (1954)
Degree Days  
Heating Degree Days 38    
Moisture  
Dew Point 17 °F    
Average Humidity 61    
Maximum Humidity 75    
Minimum Humidity 48    
Precipitation  
Precipitation 0.00 in - - ()
Sea Level Pressure  
Sea Level Pressure 30.14 in    
Wind  
Wind Speed 8 mph (WNW)    
Max Wind Speed 14 mph    
Max Gust Speed 18 mph    
Visibility 10 miles    
Events      
Averages and records for this station are not official NWS values.
T = Trace of Precipitation, MM = Missing Value Source: NWS Daily Summary

Daily Weather History Graph

Daily Weather History Graph

Search for Another Location

Airport or City:

Trip Planner

Search our weather history database for the weather conditions in past years. The results will help you decide how hot, cold, wet, or windy it might be!

Date:

Astronomy

Apr. 02, 2014 Rise Set
Actual Time 7:26 AM EDT 8:18 PM EDT
Civil Twilight 6:56 AM EDT 8:48 PM EDT
Nautical Twilight 6:20 AM EDT 9:24 PM EDT
Astronomical Twilight 5:43 AM EDT 10:02 PM EDT
Moon 9:02 AM EDT (4/2) 11:50 PM EDT (4/2)
Length of Visible Light 13h 51m
Length of Day
12h 51m
Waxing Crescent, 10% of the Moon is Illuminated
Apr 2
Waxing Crescent
Apr 7
First Quarter
Apr 15
Full
Apr 22
Last Quarter
Apr 29
New

Hourly Weather History & Observations

Time (EDT) Temp. Windchill Dew Point Humidity Pressure Visibility Wind Dir Wind Speed Gust Speed Precip Events Conditions
12:15 AM 26.6 °F 20.0 °F 15.8 °F 64% 29.98 in 10.0 mi WNW 5.8 mph - N/A   Overcast
12:35 AM 26.6 °F 19.1 °F 15.8 °F 64% 29.99 in 10.0 mi NW 6.9 mph - N/A   Overcast
12:55 AM 26.6 °F 18.2 °F 15.8 °F 64% 29.99 in 10.0 mi NW 8.1 mph 17.3 mph N/A   Overcast
1:15 AM 26.6 °F 18.2 °F 17.6 °F 69% 29.99 in 10.0 mi NW 8.1 mph - N/A   Overcast
1:35 AM 26.6 °F 18.2 °F 17.6 °F 69% 30.00 in 10.0 mi NW 8.1 mph - N/A   Overcast
1:55 AM 26.6 °F 18.2 °F 17.6 °F 69% 30.00 in 10.0 mi NW 8.1 mph - N/A   Overcast
2:15 AM 26.6 °F 18.2 °F 15.8 °F 64% 30.00 in 10.0 mi NW 8.1 mph 17.3 mph N/A   Overcast
2:35 AM 26.6 °F 16.2 °F 14.0 °F 59% 30.01 in 10.0 mi WNW 11.5 mph - N/A   Overcast
2:55 AM 26.6 °F 15.7 °F 14.0 °F 59% 30.01 in 10.0 mi WNW 12.7 mph 17.3 mph N/A   Overcast
3:15 AM 26.6 °F 17.5 °F 14.0 °F 59% 30.02 in 10.0 mi NW 9.2 mph - N/A   Overcast
3:35 AM 26.6 °F 16.8 °F 12.2 °F 55% 30.03 in 10.0 mi NW 10.4 mph 16.1 mph N/A   Overcast
3:55 AM 24.8 °F 14.0 °F 12.2 °F 59% 30.05 in 10.0 mi WNW 11.5 mph 18.4 mph N/A   Mostly Cloudy
4:15 AM 24.8 °F 14.0 °F 14.0 °F 64% 30.05 in 10.0 mi NW 11.5 mph 17.3 mph N/A   Mostly Cloudy
4:35 AM 24.8 °F 15.3 °F 14.0 °F 64% 30.05 in 10.0 mi WNW 9.2 mph - N/A   Scattered Clouds
4:55 AM 24.8 °F 15.3 °F 12.2 °F 59% 30.06 in 10.0 mi NW 9.2 mph - N/A   Clear
5:15 AM 23.0 °F 13.9 °F 12.2 °F 63% 30.07 in 10.0 mi NW 8.1 mph - N/A   Clear
5:35 AM 23.0 °F 15.8 °F 14.0 °F 68% 30.08 in 10.0 mi NW 5.8 mph - N/A   Clear
5:55 AM 21.2 °F 12.6 °F 12.2 °F 68% 30.09 in 10.0 mi WNW 6.9 mph - N/A   Clear
6:15 AM 21.2 °F 12.6 °F 12.2 °F 68% 30.09 in 10.0 mi WNW 6.9 mph - N/A   Clear
6:35 AM 21.2 °F 10.9 °F 10.4 °F 63% 30.10 in 10.0 mi WNW 9.2 mph - N/A   Clear
6:55 AM 21.2 °F 13.6 °F 10.4 °F 63% 30.10 in 10.0 mi WNW 5.8 mph - N/A   Clear
7:15 AM 19.4 °F 12.8 °F 12.2 °F 74% 30.10 in 10.0 mi West 4.6 mph - N/A   Clear
8:55 AM 21.2 °F 10.1 °F 12.2 °F 68% 30.12 in 10.0 mi WNW 10.4 mph - N/A   Clear
9:15 AM 23.0 °F 13.1 °F 12.2 °F 63% 30.12 in 10.0 mi NW 9.2 mph - N/A   Clear
9:35 AM 24.8 °F 16.9 °F 15.8 °F 69% 30.12 in 10.0 mi NNW 6.9 mph - N/A   Clear
9:55 AM 26.6 °F 16.8 °F 12.2 °F 55% 30.13 in 10.0 mi NW 10.4 mph - N/A   Clear
10:15 AM 26.6 °F 18.2 °F 15.8 °F 64% 30.14 in 10.0 mi WNW 8.1 mph - N/A   Clear
10:35 AM 28.4 °F 20.4 °F 14.0 °F 55% 30.15 in 10.0 mi West 8.1 mph - N/A   Clear
10:55 AM 28.4 °F 20.4 °F 15.8 °F 59% 30.16 in 10.0 mi WNW 8.1 mph - N/A   Clear
11:15 AM 30.2 °F 24.3 °F 15.8 °F 55% 30.17 in 10.0 mi West 5.8 mph - N/A   Clear
11:35 AM 30.2 °F 25.4 °F 15.8 °F 55% 30.17 in 10.0 mi NNW 4.6 mph - N/A   Clear
11:55 AM 32.0 °F 27.5 °F 15.8 °F 51% 30.17 in 10.0 mi NW 4.6 mph - N/A   Clear
12:15 PM 33.8 °F - 17.6 °F 52% 30.18 in 10.0 mi Calm Calm - N/A   Clear
12:35 PM 33.8 °F 30.8 °F 15.8 °F 48% 30.18 in 10.0 mi SSW 3.5 mph - N/A   Clear
12:55 PM 32.0 °F 27.5 °F 17.6 °F 55% 30.18 in 10.0 mi ESE 4.6 mph - N/A   Clear
1:15 PM 32.0 °F 24.8 °F 17.6 °F 55% 30.18 in 10.0 mi SE 8.1 mph - N/A   Clear
1:55 PM 33.8 °F 25.8 °F 19.4 °F 56% 30.19 in 10.0 mi SSE 10.4 mph - N/A   Clear
2:15 PM 33.8 °F 25.3 °F 19.4 °F 56% 30.19 in 10.0 mi SSE 11.5 mph - N/A   Clear
2:35 PM 33.8 °F 24.8 °F 19.4 °F 56% 30.19 in 10.0 mi SSE 12.7 mph - N/A   Clear
2:55 PM 33.8 °F 26.4 °F 21.2 °F 60% 30.19 in 10.0 mi SSE 9.2 mph - N/A   Clear
3:15 PM 33.8 °F 25.3 °F 21.2 °F 60% 30.19 in 10.0 mi South 11.5 mph - N/A   Clear
3:35 PM 33.8 °F 25.3 °F 19.4 °F 56% 30.19 in 10.0 mi SSE 11.5 mph - N/A   Clear
3:55 PM 33.8 °F 25.3 °F 19.4 °F 56% 30.18 in 10.0 mi South 11.5 mph - N/A   Clear
4:15 PM 35.6 °F 27.5 °F 19.4 °F 52% 30.19 in 10.0 mi South 11.5 mph - N/A   Clear
4:35 PM 35.6 °F 26.6 °F 19.4 °F 52% 30.19 in 10.0 mi South 13.8 mph - N/A   Clear
4:55 PM 35.6 °F 28.6 °F 21.2 °F 56% 30.19 in 10.0 mi South 9.2 mph - N/A   Clear
5:15 PM 35.6 °F 28.6 °F 19.4 °F 52% 30.19 in 10.0 mi South 9.2 mph - N/A   Clear
5:35 PM 35.6 °F 29.9 °F 21.2 °F 56% 30.19 in 10.0 mi South 6.9 mph - N/A   Clear
5:55 PM 35.6 °F 29.2 °F 19.4 °F 52% 30.18 in 10.0 mi SSW 8.1 mph - N/A   Clear
6:15 PM 35.6 °F 29.2 °F 21.2 °F 56% 30.18 in 10.0 mi South 8.1 mph - N/A   Clear
6:35 PM 33.8 °F 27.0 °F 21.2 °F 60% 30.18 in 10.0 mi SSW 8.1 mph - N/A   Clear
6:55 PM 33.8 °F 27.7 °F 21.2 °F 60% 30.18 in 10.0 mi South 6.9 mph - N/A   Clear
7:15 PM 33.8 °F 27.7 °F 21.2 °F 60% 30.18 in 10.0 mi South 6.9 mph - N/A   Clear
7:35 PM 33.8 °F - 21.2 °F 60% 30.19 in 10.0 mi Calm Calm - N/A   Clear
7:55 PM 32.0 °F - 24.8 °F 75% 30.20 in 10.0 mi Calm Calm - N/A   Clear
8:15 PM 30.2 °F - 23.0 °F 75% 30.21 in 10.0 mi Calm Calm - N/A   Clear
8:35 PM 30.2 °F - 21.2 °F 69% 30.21 in 10.0 mi Calm Calm - N/A   Clear
8:55 PM 28.4 °F 24.6 °F 21.2 °F 74% 30.22 in 10.0 mi NE 3.5 mph - N/A   Clear
9:15 PM 28.4 °F 23.3 °F 21.2 °F 74% 30.22 in 10.0 mi North 4.6 mph - N/A   Clear
9:35 PM 30.2 °F 23.4 °F 21.2 °F 69% 30.23 in 10.0 mi NE 6.9 mph - N/A   Clear
9:55 PM 30.2 °F 23.4 °F 19.4 °F 64% 30.23 in 10.0 mi NNE 6.9 mph - N/A   Clear
10:15 PM 30.2 °F 22.6 °F 17.6 °F 60% 30.24 in 10.0 mi NE 8.1 mph - N/A   Clear
10:35 PM 30.2 °F 22.6 °F 15.8 °F 55% 30.24 in 10.0 mi NNE 8.1 mph - N/A   Clear
10:55 PM 28.4 °F 21.2 °F 15.8 °F 59% 30.24 in 10.0 mi NNE 6.9 mph - N/A   Clear
11:15 PM 28.4 °F 23.3 °F 15.8 °F 59% 30.24 in 10.0 mi NE 4.6 mph - N/A   Clear
11:35 PM 28.4 °F 23.3 °F 15.8 °F 59% 30.25 in 10.0 mi NE 4.6 mph - N/A   Clear